Regional Weather Roundup
Issued by NWS

Home | Current Version | Previous Version | Graphics & Text | Print | Product List | Glossary On
Versions: 1 2 3 4 5 6 7 8 9 10 11 12 13 14 15 16 17 18 19 20 21 22 23 24 25 26 27 28 29 30 31 32 33 34 35 36 37 38 39 40 41 42 43 44 45 46 47 48 49 50
000
ASUS43 KIND 020259
RWRIN

WEATHER ROUNDUP FOR INDIANA
NATIONAL WEATHER SERVICE INDIANAPOLIS IN
1100 PM EDT WED APR 01 2015

NOTE: "FAIR" INDICATES FEW OR NO CLOUDS BELOW 12,000 FEET WITH NO
SIGNIFICANT WEATHER AND/OR OBSTRUCTIONS TO VISIBILITY.

* - STATION DOES NOT REPORT WEATHER SUCH AS PRECIPITATION OR FOG.

+ - STATION NOT QUALITY CONTROLLED BY THE NATIONAL WEATHER SERVICE.
    USE DATA WITH CAUTION...ESPECIALLY DEWPOINT AND RELATIVE
    HUMIDITY OBSERVATIONS.

INZ001>003-010>013-019-020-020400-
NORTHWEST INDIANA

CITY           SKY/WX    TMP DP  RH WIND       PRES   REMARKS
GARY /AIRPORT/ PTCLDY    63  30  29 S14       29.91F

$$

LMZ046-743>745-020400-
SOUTHERN LAKE MICHIGAN

STATION/POSITION TIME  TEMP WIND        PRES
                       AIR  DIR/SP/G
                 (UTC) (F)  (DEG/KT/KT) (MB)
BURNS HARBOR     0200   61  180/ 12/ 18 1013.5F
MICHIGAN CITY    0200   62  160/ 12/ 15   N/A

$$

INZ004-005-014>016-021>024-020400-
NORTH CENTRAL INDIANA

CITY           SKY/WX    TMP DP  RH WIND       PRES   REMARKS
GOSHEN         CLEAR     57  35  43 S13       29.96F
SOUTH BEND     CLEAR     59  33  37 S15       29.96F

$$

INZ006>009-017-018-025>027-020400-
NORTHEAST INDIANA

CITY           SKY/WX    TMP DP  RH WIND       PRES   REMARKS
ANGOLA *+      CLEAR     54  36  50 S5        30.00S
FORT WAYNE     MOCLDY    49  37  63 S9        30.02F

$$

INZ028-029-035-036-043>045-051>053-020400-
WEST CENTRAL INDIANA

CITY           SKY/WX    TMP DP  RH WIND       PRES   REMARKS
CRAWFORDSVL +  MOCLDY    51  31  46 SE12      29.97F
GREENCASTLE +  MOCLDY    54  32  43 SE9       29.99F
LAFAYETTE      PTCLDY    55  36  48 SE7       29.96F
TERRE HAUTE    CLOUDY    57  36  45 SE10      29.97F

$$

INZ030>032-037>040-046>048-054>057-064-065-020400-
CENTRAL INDIANA

CITY           SKY/WX    TMP DP  RH WIND       PRES   REMARKS
FRANKFORT +    PTCLDY    46  38  73 SE9       30.00F
INDIANAPOLIS   MOCLDY    58  32  37 SE13      29.99F
-EAGLE CREEK   PTCLDY    59  33  37 S9        30.00F
KOKOMO *+      CLEAR     52  37  58 S9        30.00S
MT COMFORT *+  CLEAR     54  27  35 S7        30.02F
SHELBYVILLE    PTCLDY    53  37  54 SE10      30.02F

$$

INZ033-034-041-042-049-050-058-059-020400-
EAST CENTRAL INDIANA

CITY           SKY/WX    TMP DP  RH WIND       PRES   REMARKS
MUNCIE         PTCLDY    56  32  40 S9        30.02F

$$

INZ060-061-067>069-081>083-085>088-020400-
SOUTHWEST INDIANA

CITY           SKY/WX    TMP DP  RH WIND       PRES   REMARKS
EVANSVILLE     MOCLDY    63  34  33 SE5       29.99F
HUNTINGBURG *+ CLOUDY    57  32  38 SE10      30.01F

$$

INZ062-063-066-070>080-084-089>092-020400-
SOUTH CENTRAL AND SOUTHEAST INDIANA

CITY           SKY/WX    TMP DP  RH WIND       PRES   REMARKS
BLOOMINGTON    CLOUDY    57  33  40 S7        30.00F
MADISON *+     PTCLDY    55  27  33 SE6       30.07F

$$



USA.gov is the U.S. government's official web portal to all federal, state and local government web resources and services.